Meteo Giornale » Osservazioni meteo Australia » Rockhampton
ore: 09:30 - Osservazioni Meteo Rockhampton
Lat. 23° 23' S Lon. 150° 28' E Alt. 10 metri s.l.m.
22 °C
Sereno
Temp. 24 Ore
14 °C
25 °C
Est/Sud-Est
18.5 Km/h
Dew point 14 °C
Umidità 60 %
Visibilità 10 Km
Il sole sorge alle ore 06:09
Il sole tramonta alle ore 17:47
| Data e Ora | Cielo e Fenomeni | T °C | DP °C | Um. % | Pres. hPa | Vis. km | Vento km/h | |
|---|---|---|---|---|---|---|---|---|
| Oggi h: 09:30 | Sereno | 22 | 14 | 60 | 1027 | 10 | E/SE 18.5 | |
| Oggi h: 09:00 | Sereno | 21 | 14 | 64 | 1027 | 10 | SE 18.5 | |
| Oggi h: 08:30 | Sereno | 19 | 13 | 68 | 1027 | 10 | E/SE 14.8 | |
| Oggi h: 08:00 | Sereno | 18 | 13 | 72 | 1027 | 10 | SE 16.7 | |
| Oggi h: 07:30 | Sereno | 17 | 13 | 77 | 1027 | 10 | SE 14.8 | |
| Oggi h: 07:00 | Sereno | 16 | 12 | 77 | 1027 | 10 | SE 13 | |
| Oggi h: 06:30 | Sereno | 14 | 12 | 87 | 1026 | 10 | E/SE 11.1 | |
| Oggi h: 06:00 | Sereno | 15 | 12 | 82 | 1026 | 10 | E/SE 7.4 | |
| Oggi h: 05:30 | Sereno | 15 | 12 | 82 | 1026 | 10 | E/SE 9.3 | |
| Oggi h: 05:00 | Sereno | 14 | 12 | 87 | 1025 | 10 | E/SE 9.3 | |
| Oggi h: 04:30 | Sereno | 15 | 12 | 82 | 1025 | 10 | E/SE 11.1 | |
| Oggi h: 04:00 | Sereno | 16 | 12 | 77 | 1025 | 10 | SE 9.3 | |
| Oggi h: 03:30 | Sereno | 16 | 12 | 77 | 1025 | 10 | SE 9.3 | |
| Oggi h: 03:00 | Sereno | 15 | 12 | 82 | 1026 | 10 | SE 9.3 | |
| Oggi h: 02:30 | Sereno | 16 | 12 | 77 | 1026 | 10 | E/SE 11.1 | |
| Oggi h: 02:00 | Sereno | 16 | 12 | 77 | 1026 | 10 | SE 9.3 | |
| Oggi h: 01:30 | Sereno | 15 | 12 | 82 | 1027 | 10 | SE 9.3 | |
| Oggi h: 01:00 | Sereno | 16 | 13 | 82 | 1027 | 10 | E/SE 9.3 | |
| Oggi h: 00:30 | Sereno | 15 | 12 | 82 | 1027 | 10 | E/SE 9.3 | |
| Oggi h: 00:00 | Sereno | 16 | 12 | 77 | 1027 | 10 | E/SE 11.1 | |
| Ieri h: 23:30 | Sereno | 16 | 13 | 82 | 1027 | 10 | E/SE 13 | |
| Ieri h: 23:00 | Sereno | 17 | 13 | 77 | 1027 | 10 | E/SE 11.1 | |
| Ieri h: 22:30 | Sereno | 17 | 14 | 82 | 1027 | 10 | E/SE 13 | |
| Ieri h: 22:00 | Sereno | 17 | 14 | 82 | 1027 | 10 | E/SE 13 | |
| Ieri h: 21:30 | Sereno | 18 | 14 | 77 | 1027 | 10 | E/SE 13 | |
| Ieri h: 21:00 | Sereno | 17 | 13 | 77 | 1027 | 10 | N 0 | |
| Ieri h: 20:30 | Sereno | 18 | 13 | 72 | 1027 | 10 | S/SO 9.3 | |
| Ieri h: 20:00 | Sereno | 19 | 13 | 68 | 1027 | 10 | SE 7.4 | |
| Ieri h: 19:30 | Sereno | 20 | 14 | 68 | 1027 | 10 | E/SE 9.3 | |
| Ieri h: 19:00 | Sereno | 20 | 14 | 68 | 1026 | 10 | E 11.1 | |
| Ieri h: 18:30 | Sereno | 20 | 14 | 68 | 1026 | 10 | E 13 | |
| Ieri h: 18:00 | Molto Nuvoloso | 21 | 14 | 64 | 1026 | 10 | E 13 | |
| Ieri h: 17:30 | Poco Nuvoloso | 21 | 12 | 56 | 1025 | 10 | E 16.7 | |
| Ieri h: 17:00 | Sereno | 22 | 13 | 56 | 1025 | 10 | E 18.5 | |
| Ieri h: 16:30 | Sereno | 23 | 13 | 53 | 1025 | 10 | E 20.3 | |
| Ieri h: 16:00 | Sereno | 24 | 13 | 50 | 1024 | 10 | E 18.5 | |
| Ieri h: 15:30 | Sereno | 24 | 12 | 47 | 1024 | 10 | E/NE 20.3 | |
| Ieri h: 15:00 | Poco Nuvoloso | 25 | 13 | 47 | 1024 | 10 | E/NE 18.5 | |
| Ieri h: 14:30 | Poco Nuvoloso | 25 | 14 | 50 | 1024 | 10 | E 16.7 | |
| Ieri h: 14:00 | Nuvoloso | 24 | 12 | 47 | 1025 | 10 | E 16.7 | |
| Ieri h: 13:30 | Coperto | 24 | 12 | 47 | 1025 | 10 | E/SE 14.8 | |
| Ieri h: 13:00 | Molto Nuvoloso | 24 | 12 | 47 | 1025 | 10 | E/SE 18.5 | |
| Ieri h: 12:30 | Molto Nuvoloso | 24 | 13 | 50 | 1026 | 10 | E/SE 18.5 | |
| Ieri h: 12:00 | Molto Nuvoloso | 24 | 13 | 50 | 1026 | 10 | E 24 | |
| Ieri h: 11:30 | Coperto | 23 | 12 | 49 | 1026 | 10 | SE 22.2 | |
| Ieri h: 11:00 | Nuvoloso | 23 | 12 | 49 | 1027 | 10 | E/SE 20.3 | |



